#timestamp,LO_Frequency,Hit,StdDev 
1684976415.7,286046996.6,Y
1684976435.6,286047000.0,P
1684976455.4,286046999.7,N
1684976475.2,286047002.4,N
1684976495.1,286047002.8,N
1684976496.0,286047002.8,N
1684976515.8,286047002.7,N
1684976535.6,286047002.6,N
1684976555.5,286047002.3,N
1684976575.3,286047002.8,N
1684976595.2,286046999.8,N
1684976615.9,286047000.2,N
1684976635.7,286046999.7,N
1684976655.6,286047002.7,N
1684976675.4,286047000.4,N
1684976695.2,286047000.6,N
1684976715.1,286047000.4,N
1684976716.0,286047000.4,N
1684976735.8,286047001.0,N
1684976755.7,286046998.1,N
1684976775.5,286047000.6,N
1684976795.3,286047000.9,N
1684976815.2,286047000.3,N
1684976835.0,286047002.8,N
1684976835.9,286047002.8,N
1684976855.7,286046999.9,N
1684976875.6,286046999.8,N
1684976925.4,286046999.9,E
1684976935.3,286047000.5,N
1684976955.2,286047000.3,P
1684976975.0,286047000.9,P
1684976975.9,286047000.9,Y
1684976995.8,286046998.3,P
1684977015.6,286047000.5,N
1684977035.5,286047000.8,N
1684977055.3,286046998.7,N
1684977075.1,286046998.9,N
1684977095.9,286046999.6,N
1684977115.4,286046999.3,N
1684977135.3,286046998.9,N
1684977155.1,286046998.6,N
1684977175.9,286047001.0,N
1684977195.7,286046998.5,N
1684977215.6,286046999.6,N
1684977235.4,286046997.8,N
1684977255.2,286046995.0,Y
1684977275.1,286046999.0,P
1684977276.0,286046999.0,P
1684977295.8,286046998.5,P
1684977315.7,286047001.1,Y
1684977335.5,286047000.8,P
1684977355.3,286047000.8,N
1684977375.2,286047001.0,N
1684977395.0,286046998.4,N
1684977395.9,286046998.4,N
1684977415.7,286046999.0,N
1684977435.6,286046998.9,N
1684977455.4,286046998.4,N
1684977475.3,286046998.4,N
1684977495.1,286046999.3,N
1684977496.0,286046999.3,N
1684977515.8,286046998.7,N
1684977535.7,286046998.5,N
1684977555.5,286046998.7,N
1684977575.3,286047001.1,N
1684977595.2,286047000.8,N
1684977615.0,286046998.7,N
1684977615.9,286046998.7,N
1684977635.8,286047001.2,N
1684977655.6,286047000.2,N
1684977675.4,286047002.3,N
1684977695.3,286047002.2,N
1684977715.1,286047002.0,N
1684977735.8,286047002.0,N
1684977755.7,286047001.9,N
1684977775.5,286047002.2,N
1684977795.4,286047002.4,N
1684977815.2,286047002.5,N
1684977835.0,286047001.7,N
1684977835.9,286047001.7,N
1684977855.8,286047004.4,N
1684977875.6,286047004.3,N
1684977895.4,286047003.4,N
1684977915.3,286047003.7,N
1684977935.1,286047005.9,Y
1684977955.9,286047003.6,P
1684977975.7,286047006.0,P
1684977995.5,286047003.3,N
1684978015.4,286047005.9,Y
1684978035.2,286047002.0,P
1684978055.0,286047001.5,N
1684978055.9,286047001.5,N
1684978075.8,286047001.5,N
1684978095.6,286047001.5,N
1684978115.5,286047001.7,N
1684978135.3,286047004.3,Y
1684978155.1,286046999.8,P
1684978175.9,286047000.6,N
1684978195.7,286046999.9,N
1684978215.6,286047000.3,N
1684978235.4,286047000.2,N
1684978255.2,286047000.3,N
1684978275.1,286046999.9,N
1684978276.0,286046999.9,N
1684978295.8,286047000.3,N
1684978315.6,286047002.2,Y
1684978335.5,286047000.0,P
1684978355.3,286047000.1,N
1684978375.2,286047002.8,P
1684978395.9,286047002.8,N
1684978415.7,286047000.4,N
1684978435.6,286047002.8,N
1684978455.4,286047000.1,N
1684978475.2,286047002.8,N
1684978495.1,286047000.3,N
1684978496.0,286047000.3,N
1684978515.8,286047002.4,N
1684978535.7,286047002.2,N
1684978555.5,286047002.2,N
1684978575.3,286047002.8,N
1684978595.2,286047001.7,N
1684978615.0,286047002.1,N
1684978615.9,286047002.1,N
1684978635.8,286047002.6,N
1684978655.6,286047002.7,N
1684978675.4,286047000.2,N
1684978695.3,286047002.8,N
1684978715.1,286047002.0,N
1684978735.8,286047001.7,N
1684978755.7,286047001.7,N
1684978775.5,286047001.7,N
1684978795.4,286047001.8,N
1684978815.2,286047004.3,Y
1684978835.0,286047002.1,P
1684978836.0,286047002.1,P
1684978855.8,286047001.7,P
1684978875.6,286047001.9,Y
1684978895.5,286047000.2,P
1684978915.3,286046999.9,N
1684978935.1,286047002.4,N
1684978955.9,286046999.7,N
1684978975.7,286047000.0,N
1684978995.6,286047001.0,N
1684979015.4,286047000.1,N
1684979035.2,286047002.3,N
1684979055.1,286047002.6,N
1684979056.0,286047002.6,N
1684979075.8,286046999.8,N
1684979095.7,286047000.0,N
1684979115.5,286047000.4,N
1684979135.3,286046999.8,N
1684979155.2,286047000.0,N
1684979175.0,286047000.6,N
1684979175.9,286047000.6,N
1684979195.8,286047002.4,N
1684979215.6,286047000.5,N
1684979235.4,286047000.3,N
1684979255.3,286047000.0,N
1684979275.1,286047000.4,N
1684979295.8,286047000.0,N
1684979315.7,286047001.1,N
1684979335.5,286047000.5,N
1684979355.4,286047000.3,N
1684979375.2,286046998.8,N
1684979395.0,286046998.4,N
1684979395.9,286046998.4,N
1684979415.8,286047000.6,N
1684979435.6,286047002.7,N
1684979455.4,286047002.8,N
1684979475.3,286046999.7,N
1684979495.1,286047002.8,N
1684979515.9,286047002.2,N
1684979535.7,286047001.9,N
1684979555.5,286047002.7,N
1684979575.4,286047002.4,N
1684979595.2,286046999.8,N
1684979615.0,286046999.7,N
1684979616.0,286046999.7,N
1684979635.8,286047001.8,N
1684979655.6,286047002.6,N
1684979675.5,286047002.7,N
1684979695.3,286047002.8,N
1684979715.1,286047000.3,N
1684979735.9,286047000.4,N
1684979755.7,286047000.5,N
1684979775.6,286047000.1,N
1684979795.4,286047000.2,N
1684979815.2,286047000.8,N
1684979835.1,286047000.5,N
1684979836.0,286047000.5,N
1684979855.8,286046999.9,N
1684979875.6,286047002.6,N
1684979895.5,286047002.8,N
1684979915.3,286047002.2,N
1684979935.1,286047002.5,N
1684979955.9,286047002.2,N
1684979975.7,286047001.9,N
1684979995.6,286047002.0,N
